www.pogodaiklimat.ru

Погода и климат >> Архив погоды >> Индия >> Belgaum Airport


ПОГОДА в Belgaum Airport

  • Прогноз погоды в Belgaum Airport
  • Монитор погоды в Belgaum Airport
  • Климат города

АРХИВ ПОГОДЫ в Belgaum Airport

Время (UTC), дата Ветер
(напр.,м/с)
 
Видим.   Явления Облачность Т
(С)
Тd
(С)
f
(%)
Тe
(С)
Тes
(С)
Комфортность P
(гПа)
Po
(гПа)
Тmin
(С)
Tmax
(С)
R
(мм)
R24
(мм)
S
(см)
12 10.11 СВ 2 10 км 4/3 450 м
[Sc Ci fib]
+29.0 +18.8 54 +34 +35 очень
душно
1007.4 927.0 +31.5
15 10.11 штиль 0 4000 м 3/1 450 м
[Sc Ci fib]
+23.0 +16.7 68 +28 +28 душно 1011.9 929.5
18 10.11 штиль 0 4000 м 1/0
[Ci fib]
+22.6 +15.2 63 +26 +26 жарко 1012.2 925.8
21 10.11 штиль 0 4000 м ясно +19.4 +16.5 83 1012.0 926.5
00 11.11 штиль 0 4000 м ясно +18.6 +15.0 80 +19 +19 1012.7 929.2
03 11.11 штиль 0 4000 м ясно +22.4 +16.7 70 +27 +31 душно 1013.8 931.3 +16.4 +31.5
06 11.11 ЮВ 3 4000 м 3/0
[Ci fib]
+29.4 +14.9 41 +32 +42 душно 1011.2 930.8
09 11.11 СВ 4 10 км 5/3 450 м
[Sc Ci fib]
+31.4 +11.2 29 +32 +36 жарко 1007.4 927.7
12 11.11 СВ 2 10 км 4/0
[Ci fib]
+28.6 +17.3 50 +33 +33 очень
душно
1008.5 928.0 +32.2
15 11.11 штиль 0 4000 м 1/0
[Ci fib]
+23.0 +18.7 77 +29 +29 очень
душно
1013.0 930.6
18 11.11 штиль 0 4000 м ясно +21.0 +17.9 82 +25 +25 комфорт 1013.6 930.7
21 11.11 штиль 0 4000 м ясно +18.4 +16.1 86 +19 +19 1012.8 929.3
00 12.11 штиль 0 4000 м дымка 1/0
[Ci fib]
+17.2 +15.9 92 +17 +17 1012.9 929.1
03 12.11 В 4 4000 м мгла 1/0
[Ci fib]
+22.4 +16.7 70 +27 +29 душно 1012.6 930.2 +16.0 +32.2
06 12.11 В 2 4000 м 3/0
[Ci fib]
+29.0 +10.9 33 +30 +42 жарко 1010.4 929.7
09 12.11 С 3 10 км ясно +30.6 +10.0 28 +30 +39 жарко 1006.5 926.7
12 12.11 С 2 10 км ясно +27.6 +10.2 34 +28 +29 жарко 1007.1 926.5 +31.0
15 12.11 штиль 0 4000 м ясно +20.8 +12.3 58 +23 +23 комфорт 1011.9 929.0
18 12.11 штиль 0 4000 м ясно +17.0 +11.8 71 +17 +17 1012.8 928.9
00 13.11 штиль 0 4000 м ясно +14.2 +10.2 77 +14 +14 1011.2 927.6
03 13.11 штиль 0 4000 м ясно +21.0 +11.3 54 +23 +27 комфорт 1012.1 929.2 +12.6 +31.0
06 13.11 штиль 0 10 км ясно +29.4 +5.1 21 +28 +46 жарко 1009.0 928.8
09 13.11 штиль 0 10 км ясно +29.6 +7.2 24 +28 +43 жарко 1005.9 925.9
12 13.11 С 2 10 км ясно +28.0 +7.8 28 +28 +28 жарко 1006.6 926.0 +31.2
15 13.11 штиль 0 4000 м ясно +21.0 +14.4 66 +24 +24 комфорт 1010.2 927.4
18 13.11 штиль 0 4000 м ясно +17.4 +15.1 86 +17 +17 1011.4 927.8
21 13.11 штиль 0 4000 м дымка ясно +14.6 +13.2 91 +14 +14 1010.8 926.4
00 14.11 штиль 0 4000 м дымка ясно +14.4 +13.4 94 +14 +14 1011.1 926.7
03 14.11 штиль 0 4000 м ясно +20.6 +14.0 66 +23 +27 комфорт 1012.0 929.1 +13.2 +31.2
06 14.11 В 2 10 км ясно +29.6 +8.8 27 +29 +44 жарко 1008.7 928.5
09 14.11 ЮВ 2 10 км ясно +31.0 +7.5 23 +30 +40 жарко 1005.6 925.8
12 14.11 С 2 10 км ясно +27.8 +9.5 32 +28 +28 жарко 1006.4 925.8 +31.6
15 14.11 штиль 0 4000 м ясно +19.6 +11.7 60 +21 +21 комфорт 1011.0 927.9
18 14.11 штиль 0 4000 м ясно +16.6 +11.1 70 +17 +17 1012.3 928.4
21 14.11 штиль 0 4000 м ясно +15.0 +10.3 73 +15 +15 1012.0 927.4
00 15.11 штиль 0 4000 м ясно +15.0 +12.2 83 +15 +15 1012.1 927.5
03 15.11 С 2 4000 м ясно +21.0 +11.3 54 +24 +27 комфорт 1012.3 929.4 +12.1 +31.6
06 15.11 ЮВ 4 10 км ясно +29.4 +12.4 35 +30 +39 жарко 1009.7 929.3
09 15.11 В 3 10 км 3/0
[Ci fib]
+31.0 +12.9 33 +32 +40 жарко 1006.7 926.9
12 15.11 СВ 2 10 км 1/0
[Ci fib]
+28.6 +9.3 30 +29 +29 жарко 1007.0 926.7 +31.5
15 15.11 штиль 0 4000 м ясно +20.2 +11.2 56 +22 +22 комфорт 1012.5 929.6
18 15.11 штиль 0 4000 м ясно +17.8 +11.5 67 +18 +18 1013.1 929.3
21 15.11 штиль 0 4000 м ясно +16.4 +12.2 76 +16 +16 1012.1 928.2
00 16.11 штиль 0 4000 м ясно +18.0 +12.1 68 +18 +18 1012.0 928.4
03 16.11 В 3 10 км 3/0
[Ci fib]
+24.0 +14.6 56 +27 +29 жарко 1011.9 929.8 +15.7 +31.5
06 16.11 В 5 10 км 4/1 600 м
[Sc diur, vesp Ci fib]
+29.2 +13.4 38 +31 +36 жарко 1009.9 929.5
09 16.11 В 3 10 км 8/5 450 м
[Cu Sc Ac trans Ci fib]
+29.6 +17.1 47 +33 +36 душно 1007.6 927.4
12 16.11 В 4 10 км 6/5 450 м
[Cu Sc Ci fib]
+29.2 +18.0 51 +34 +34 очень
душно
1006.8 926.8 +32.1
15 16.11 штиль 0 10 км 4/3 450 м
[Sc Ci fib]
+23.8 +18.0 70 +28 +28 душно 1011.5 929.4
18 16.11 штиль 0 4000 м 6/4 450 м
[Sc Ac trans Ci fib]
+23.0 +19.1 79 +29 +29 очень
душно
1011.9 929.5
21 16.11 В 3 4000 м 3/0
[Ci fib]
+22.4 +18.4 78 +28 +28 душно 1010.2 928.0
00 17.11 В 2 4000 м 3/0
[Ci fib]
+20.6 +18.4 87 +25 +25 комфорт 1010.6 927.8
03 17.11 В 3 10 км 3/0
[Ci fib]
+24.0 +19.5 76 +29 +31 душно 1012.1 930.0 +20.0 +32.1
06 17.11 В 5 10 км 6/5 450 м
[Cu Sc Ci fib]
+29.8 +18.7 51 +35 +38 очень
душно
1009.9 929.5

 

Местоположение метеостанции Belgaum Airport (Karnataka, Индия): широта 15.85 долгота 74.62 высота над уровнем моря 747 м.

В архиве по умолчанию представлена погода в Belgaum Airport за последнюю неделю. Архивные данные за месяц целиком и за предыдущие месяцы, начиная с января 2011 года, Вы можете получить, выбрав интересующий диапазон дат из раскрывающегося списка и нажав кнопку "Ввод!".


*Определитесь, кто Вы:
робот инопланетянин человек

Внимание! Время в таблицах - всемирное. Для получения местного времени необходимо прибавить поправку, которая в Belgaum Airport равна 5.5 ч.

Смотрите также архив погоды в соседних городах и на ближайших метеорологических станциях:

Погода в Belgaum (Karnataka, Индия) (10 км)
Погода в Dharwad (Karnataka, Индия) (56 км)
Погода в Panjim (Goa, Индия) (95 км)
Погода в Mormugao (Goa, Индия) (102 км)
Погода в Kolhapur (Maharashtra, Индия) (103 км)
Погода в Vengurla (Maharashtra, Индия) (106 км)
Погода в Sangli (Maharashtra, Индия) (111 км)
Погода в Gadag (Karnataka, Индия) (118 км)
Погода в Karwar (Karnataka, Индия) (130 км)
Погода в Haveri (Karnataka, Индия) (145 км)

Пояснения к столбцам:

Ветер - указаны скорость ветра в м/с - средняя за 10 мин, порывы в срок и между сроками (в фигурных скобках) и направление, откуда дует ветер: С - северный, СВ - северо-восточный, В - восточный, ЮВ - юго-восточный, Ю - южный, ЮЗ - юго-западный, З - западный, СЗ - северо-западный.
Видимость - горизонтальная дальность видимости в метрах или километрах. При видимости от 1 до 10 км при отсутствии осадков обычно наблюдается дымка, при ухудшении видимости до 1 км и менее - туман. В сухую погоду видимость может ухудшаться дымом, пылью или мглою.
Явления - указаны атмосферные явления, наблюдавшиеся в срок или в последний час перед сроком; фигурными скобками обозначены явления, наблюдавшиеся между сроками (за 1-3 часа до срока); квадратными скобками обозначены град или гололедные отложения с указанием их диаметра в мм.
Облачность - указаны через наклонную черту общая и нижняя облачность в баллах и высота нижней границы облаков в метрах; квадратными скобками обозначены формы облаков: Ci - перистые, Cs - перисто-слоистые, Cc - перисто-кучевые, Ac - высококучевые, As - высокослоистые, Sc - слоисто-кучевые, Ns - слоисто-дождевые, Cu - кучевые, Cb - кучево-дождевые. Подробнее классификацию облаков см. в Атласе облаков (PDF).
T - Температура воздуха - температура, измеренная на высоте 2 м над землей.
Td - Температура точки росы - температура, при понижении до которой содержащийся в воздухе водяной пар достигнет насыщения.
f - Относительная влажность воздуха - влажноcть воздуха, измеренная на высоте 2 м над землей.
Te - Эффективная температура - температура, которую ощущает одетый по сезону человек в тени. Характеристика душности погоды. При расчете учитывается влияние влажности воздуха и скорости ветра на теплоощущения человека.
Tes - Эффективная температура на солнце - температура, которую ощущает человек, с поправкой на солнечный нагрев. Характеристика знойности погоды. Зависит от высоты солнца над горизонтом, облачности и скорости ветра. Ночью, в пасмурную погоду, а также при ветре 12 м/с и более поправка равна нулю.
P - Атмосферное давление - приведенное к уровню моря атмосферное давление.
Po - Атмосферное давление - измеренное на уровне метеостанции атмосферное давление.
Tmin - Минимальная температура - минимум температуры воздуха на высоте 2 м над землей.
Tmax - Максимальная температура - максимум температуры воздуха на высоте 2 м над землей.
R - Количество осадков - Количество выпавших осадков за период времени, мм. При наведении курсора мыши на число - период времени, за который выпало указанное количество осадков.
R24 - Количество осадков - Количество выпавших осадков за 24 часа, мм.
S - Снежный покров - Высота снежного покрова, см. При наведении курсора мыши на число - состояние снежного покрова и степень покрытия местности в баллах.